Weather History for KSTL - October, 2013

Change the Weather History Date:

Friday, October 4, 2013

  Actual Average Record
Temperature  
Mean Temperature 80 °F 63 °F  
Max Temperature 89 °F 73 °F 92 °F (1951)
Min Temperature 71 °F 53 °F 36 °F (1935)
Degree Days  
Heating Degree Days 0 5  
Month to date heating degree days 0 17  
Since 1 July heating degree days 3 58  
Cooling Degree Days 15 2  
Month to date cooling degree days 50 11  
Year to date cooling degree days 1715 1612  
Growing Degree Days 30 (Base 50)    
Moisture  
Dew Point 67 °F    
Average Humidity 65    
Maximum Humidity 84    
Minimum Humidity 46    
Precipitation  
Precipitation 0.00 in 0.11 in 1.51 in (1991)
Month to date precipitation 0.31 0.42  
Year to date precipitation 37.66 31.30  
Snow  
Snow 0.00 in 0.00 in 0.00 in (2013)
Month to date snowfall 0.0 0.0  
Since 1 July snowfall 0.0 0.0  
Since 1 September snowfall 0.0 0.0  
Snow Depth 0.00 in    
Sea Level Pressure  
Sea Level Pressure 29.92 in    
Wind  
Wind Speed 10 mph (South)    
Max Wind Speed 20 mph    
Max Gust Speed 26 mph    
Visibility 10 miles    
Events      
T = Trace of Precipitation, MM = Missing Value Source: NWS Daily Summary

Daily Weather History Graph

Daily Weather History Graph

Search for Another Location

Airport or City:

Trip Planner

Search our weather history database for the weather conditions in past years. The results will help you decide how hot, cold, wet, or windy it might be!

Date:

Astronomy

Oct. 04, 2013 Rise Set
Actual Time 7:00 AM CDT 6:39 PM CDT
Civil Twilight 6:33 AM CDT 7:05 PM CDT
Nautical Twilight 6:03 AM CDT 7:36 PM CDT
Astronomical Twilight 5:32 AM CDT 8:07 PM CDT
Moon 6:35 AM CDT (10/4) 6:22 PM CDT (10/4)
Length of Visible Light 12h 31m
Length of Day
11h 38m
Waning Crescent, 0% of the Moon is Illuminated
Oct 4
Waning Crescent
Oct 4
New
Oct 11
First Quarter
Oct 18
Full
Oct 26
Last Quarter

Hourly Weather History & Observations

Time (CDT) Temp. Heat Index Dew Point Humidity Pressure Visibility Wind Dir Wind Speed Gust Speed Precip Events Conditions
12:51 AM 73.9 °F - 66.9 °F 79% 29.91 in 10.0 mi South 6.9 mph - N/A   Clear
1:51 AM 73.0 °F - 66.9 °F 81% 29.94 in 10.0 mi South 4.6 mph - N/A   Clear
2:51 AM 73.0 °F - 66.9 °F 81% 29.93 in 10.0 mi South 4.6 mph - N/A   Clear
3:51 AM 72.0 °F - 66.9 °F 84% 29.92 in 10.0 mi South 5.8 mph - N/A   Clear
4:51 AM 72.0 °F - 66.9 °F 84% 29.92 in 10.0 mi South 9.2 mph - N/A   Clear
5:51 AM 71.1 °F - 66.9 °F 87% 29.94 in 9.0 mi South 6.9 mph - N/A   Clear
6:51 AM 71.1 °F - 66.9 °F 87% 29.95 in 7.0 mi South 6.9 mph - N/A   Scattered Clouds
7:51 AM 72.0 °F - 66.9 °F 84% 29.96 in 7.0 mi South 8.1 mph - N/A   Scattered Clouds
8:51 AM 75.0 °F - 68.0 °F 79% 29.95 in 9.0 mi SSW 8.1 mph - N/A   Mostly Cloudy
9:51 AM 79.0 °F - 68.0 °F 69% 29.96 in 10.0 mi SSW 13.8 mph - N/A   Mostly Cloudy
10:51 AM 82.0 °F 84.9 °F 68.0 °F 62% 29.94 in 10.0 mi SSW 13.8 mph - N/A   Mostly Cloudy
11:51 AM 86.0 °F 89.4 °F 68.0 °F 55% 29.93 in 10.0 mi South 10.4 mph - N/A   Mostly Cloudy
12:51 PM 89.1 °F 92.1 °F 66.9 °F 48% 29.92 in 10.0 mi South 11.5 mph 17.3 mph N/A   Mostly Cloudy
1:51 PM 87.1 °F 89.9 °F 66.9 °F 51% 29.90 in 10.0 mi SSE 11.5 mph 19.6 mph N/A   Mostly Cloudy
2:51 PM 88.0 °F 89.6 °F 64.9 °F 46% 29.88 in 10.0 mi SSE 12.7 mph 18.4 mph N/A   Mostly Cloudy
3:51 PM 87.1 °F 89.2 °F 66.0 °F 49% 29.88 in 10.0 mi South 16.1 mph 23.0 mph N/A   Mostly Cloudy
4:51 PM 86.0 °F 87.6 °F 64.9 °F 49% 29.88 in 10.0 mi South 13.8 mph - N/A   Mostly Cloudy
5:51 PM 84.9 °F 87.1 °F 66.0 °F 53% 29.89 in 10.0 mi South 9.2 mph - N/A   Mostly Cloudy
6:51 PM 82.9 °F 85.0 °F 66.0 °F 56% 29.90 in 10.0 mi South 9.2 mph - N/A   Mostly Cloudy
7:51 PM 82.0 °F 84.5 °F 66.9 °F 60% 29.91 in 10.0 mi South 8.1 mph - N/A   Mostly Cloudy
8:51 PM 81.0 °F 83.3 °F 66.9 °F 62% 29.93 in 10.0 mi South 8.1 mph - N/A   Mostly Cloudy
9:51 PM 79.0 °F - 68.0 °F 69% 29.93 in 10.0 mi South 11.5 mph 20.7 mph N/A   Mostly Cloudy
10:51 PM 78.1 °F - 69.1 °F 74% 29.92 in 10.0 mi South 10.4 mph - N/A   Mostly Cloudy
11:51 PM 75.9 °F - 69.1 °F 79% 29.92 in 10.0 mi South 9.2 mph - N/A   Scattered Clouds